Notices

What's New in latest Release from April 7th, 2021:

- Updated Glossary, including Speed of Maximum Gust, and Total Hourly Precipitation

- Updated national and regional climate services offices contacts and prices information

- Addition of station inventory lists for 1981-2010, 1971-2000, and 1961-1990 Normals.

If you haven't already, please take our survey and provide feedback about our website: https://eccc.sondage-survey.ca/f/LanguageSelection.aspx?s=442ca660-fcf1-47c0-95a9-59707d6fd709

Hourly Data Report for December 20, 2019

SAINT JOHN A
NEW BRUNSWICK
Current Station Operator: NAVCAN

45°18'58.000" N
65°53'24.000" W
108.80 m
8104901
71609
YSJ

Download Data

Hourly Data (December 2019)
Hourly Data Report for December 20, 2019
TIME
LST
Temp Definition
°C
Dew Point Definition
°C
Rel Hum Definition
%
Precip. Amount Definition
mm

Wind Dir Definition
10's deg

Wind Spd Definition
km/h
Visibility Definition
km
Stn Press Definition
kPa
Hmdx Definition


Wind Chill Definition


Weather Definition


00:00 -13.3 -18.9 64   29 16 24.1 99.93   -21 LegendNANA
01:00 -12.8 -18.3 64   28 21 19.3 99.97   -22 LegendNANA
02:00 -12.5 -17.9 64   29 21 24.1 100.02   -21 Snow
03:00 -11.7 -17.1 65   29 18 24.1 100.10   -20 Snow
04:00 -11.2 -16.3 66   29 22 24.1 100.12   -20 Snow
05:00 -10.3 -15.3 67   29 19 24.1 100.16   -18 Mostly Cloudy
06:00 -9.2 -13.4 72   32 23 24.1 100.21   -17 LegendNANA
07:00 -8.6 -12.7 73   32 23 24.1 100.37   -17 LegendNANA
08:00 -8.0 -11.8 74   31 18 24.1 100.46   -15 Mostly Cloudy
09:00 -7.1 -10.8 75   31 16 24.1 100.61   -13 LegendNANA
10:00 -5.8 -9.9 73   31 21 24.1 100.72   -13 LegendNANA
11:00 -4.2 -9.2 69   31 21 24.1 100.79   -11 Mostly Cloudy
12:00 -2.8 -8.6 65   32 27 24.1 100.80   -10 LegendNANA
13:00 -1.2 -7.7 61   32 22 24.1 100.85   -7 LegendNANA
14:00 -0.6 -7.6 59   31 19 24.1 100.94   -6 Mainly Clear
15:00 -0.5 -7.5 59   32 19 24.1 101.02   -6 LegendNANA
16:00 -1.0 -7.6 61   34 29 24.1 101.11   -8 LegendNANA
17:00 -2.3 -7.7 66   32 23 24.1 101.22   -9 Mostly Cloudy
18:00 -2.9 -7.9 69   33 36 24.1 101.28   -11 LegendNANA
19:00 -2.7 -7.5 70   34 32 24.1 101.37   -10 LegendNANA
20:00 -2.7 -7.2 71   34 19 24.1 101.44   -8 Mostly Cloudy
21:00 -3.4 -7.4 74   34 23 24.1 101.52   -10 LegendNANA
22:00 -4.1 -7.9 75   33 18 24.1 101.59   -10 LegendNANA
23:00 -5.0 -8.1 79   33 14 24.1 101.66   -10 Mainly Clear

Notes on Data Quality.

Legend

  • E = Estimated
  • M = Missing
  • NA = Not Available*
  • [empty] = Indicates an unobserved value
Date modified: